Simultaneous Nadir Overpasses (SNOs) Predictions

Prediction of SNOs between TERRA and METOP-C Satellite Orbit:

Table of predicted SNOs for the next 14.0 days since TLE Epoch: 12/12/2020
Index Date (TERRA) Time (TERRA) Lat,Lon (TERRA) SZA (TERRA ) Date (METOP-C) Time (METOP-C) Lat,Lon (METOP-C) SZA (METOP-C ) Distance(km) Time Diff (sec)
1 12/14/2020 11:30:52 -81.28,-126.04 72.77 12/14/2020 11:30:21 -81.28,-126.10 72.79 1.30 31
2 12/14/2020 12:20:18 81.29, 41.71 107.26 12/14/2020 12:21:01 81.29, 41.88 107.29 3.01 43
3 12/17/2020 07:05:06 -81.27, -59.88 72.72 12/17/2020 07:04:45 -81.27, -59.86 72.73 0.80 21
4 12/17/2020 07:54:31 81.29, 108.21 107.35 12/17/2020 07:55:25 81.28, 108.11 107.36 2.06 54
5 12/20/2020 02:39:18 -81.27, 6.60 72.70 12/20/2020 02:39:07 -81.28, 6.75 72.68 2.74 11
6 12/20/2020 03:28:44 81.27, 174.29 107.32 12/20/2020 03:29:48 81.28, 174.31 107.35 0.87 64
7 12/22/2020 21:24:04 81.27, -94.58 107.27 12/22/2020 21:22:51 81.27, -94.42 107.26 2.71 73
8 12/22/2020 22:13:31 -81.27, 73.03 72.74 12/22/2020 22:13:31 -81.27, 72.96 72.74 1.36 0
9 12/22/2020 23:02:40 81.58,-112.65 108.21 12/22/2020 23:03:53 81.33,-112.04 108.16 29.87 73
10 12/25/2020 16:58:17 81.27, -28.21 107.16 12/25/2020 16:57:15 81.27, -28.27 107.13 1.02 62



Historial Predications of SNOs between TERRA and METOP-C
